FW5697 Weather Reports


time (UTC)temp
F
wind
direction
speed
knots
gust
knots
rain 1hr
in
rain 24hr
in
rain mn
in
humidity
%
barometer
mb
20260905050031 77 0 0.0 0.0 0.00 0.00 0.00 90 1014.6
20260905044533 76 0 0.0 0.0 0.00 0.00 0.00 90 1014.7
20260905043035 76 0 0.0 0.0 0.00 0.00 0.00 90 1014.7
20260905041533 77 0 0.0 0.0 0.00 0.00 0.00 88 1014.7
20260905040037 77 0 0.0 0.0 0.00 0.00 0.00 88 1014.7
20260905034535 77 0 0.0 0.0 0.00 0.00 0.00 86 1014.9
20260905033048 77 0 0.0 0.0 0.00 0.00 0.00 85 1014.7
20260905031543 77 0 0.0 0.0 0.00 0.00 0.00 87 1014.9
20260905030032 77 0 0.0 0.0 0.00 0.00 0.00 87 1014.9
20260905024534 77 0 0.0 0.0 0.00 0.00 0.00 86 1015.0
20260905023041 78 0 0.0 0.0 0.00 0.00 0.00 86 1015.2
20260905021538 78 0 0.0 0.0 0.00 0.00 0.00 85 1015.2
20260905020036 79 0 0.0 0.0 0.00 0.00 0.00 84 1015.2
20260905014535 79 0 0.0 0.0 0.00 0.00 0.00 83 1015.5
20260905013036 80 0 0.0 0.0 0.00 0.00 0.00 81 1015.4
20260905011535 81 0 0.0 0.0 0.00 0.00 0.00 79 1015.2
20260905010034 82 0 0.0 0.0 0.00 0.00 0.00 78 1015.1
20260905004537 82 0 0.0 0.0 0.00 0.00 0.00 75 1014.7
20260905003036 83 0 0.0 0.0 0.00 0.00 0.00 74 1014.6
20260905001535 84 0 0.0 0.0 0.00 0.00 0.00 73 1014.5
20260905000034 85 0 0.0 0.0 0.00 0.00 0.00 68 1014.2
20260904234534 87 0 0.0 0.0 0.00 0.00 0.00 64 1014.2
20260904233035 89 0 0.0 0.0 0.00 0.00 0.00 60 1014.1
20260904231539 91 0 0.0 0.0 0.00 0.00 0.00 57 1014.0
20260904230037 92 0 0.0 0.0 0.00 0.00 0.00 54 1013.9
20260904224551 93 0 0.0 0.0 0.00 0.00 0.00 52 1013.9
20260904223037 94 0 0.0 0.0 0.00 0.00 0.00 50 1014.1
20260904221536 94 0 0.0 0.0 0.00 0.00 0.00 52 1014.1
20260904220038 95 0 0.0 0.9 0.00 0.00 0.00 50 1014.2
20260904214542 95 0 0.0 0.0 0.00 0.00 0.00 50 1014.1
20260904213037 95 0 0.0 0.0 0.00 0.00 0.00 52 1014.1
20260904211536 94 0 0.0 2.6 0.00 0.00 0.00 52 1014.1
20260904210043 94 0 0.0 2.6 0.00 0.00 0.00 52 1014.2
20260904204535 95 0 0.0 1.7 0.00 0.00 0.00 54 1014.1
20260904203032 94 0 0.0 2.6 0.00 0.00 0.00 52 1014.4
20260904201537 94 0 0.0 4.3 0.00 0.00 0.00 54 1014.6
20260904200035 93 0 0.0 1.7 0.00 0.00 0.00 56 1014.9
20260904194540 92 62 0.0 2.6 0.00 0.00 0.00 56 1014.9
20260904193033 93 316 0.9 3.5 0.00 0.00 0.00 55 1015.2
20260904191532 92 0 0.0 1.7 0.00 0.00 0.00 57 1015.4
20260904190034 91 53 0.0 1.7 0.00 0.00 0.00 59 1015.6
20260904184533 92 26 0.0 5.2 0.00 0.00 0.00 57 1015.9
20260904183034 91 33 0.9 3.5 0.00 0.00 0.00 58 1016.0
20260904181534 91 82 0.0 2.6 0.00 0.00 0.00 60 1016.2
20260904180035 91 0 0.0 1.7 0.00 0.00 0.00 62 1016.3
20260904174533 90 44 0.0 1.7 0.00 0.00 0.00 63 1016.4
20260904173039 90 19 0.9 2.6 0.00 0.00 0.00 64 1016.8
20260904171537 89 0 0.0 3.5 0.00 0.00 0.00 64 1016.8
20260904170035 89 0 0.0 1.7 0.00 0.00 0.00 66 1016.9
20260904164536 88 0 0.0 2.6 0.00 0.00 0.00 68 1017.2
20260904163035 87 88 0.0 1.7 0.00 0.00 0.00 68 1017.2
20260904161535 87 142 0.0 1.7 0.00 0.00 0.00 69 1017.5
20260904160034 87 140 0.0 1.7 0.00 0.00 0.00 70 1017.7
20260904154534 85 54 0.0 1.7 0.00 0.00 0.00 73 1017.7
20260904153036 84 0 0.0 1.7 0.00 0.00 0.00 77 1017.7
20260904151534 83 0 0.0 0.9 0.00 0.00 0.00 80 1017.8
20260904150056 81 0 0.0 1.7 0.00 0.00 0.00 81 1017.7
20260904144536 81 15 0.0 3.5 0.00 0.00 0.00 84 1017.6
20260904143036 79 0 0.0 0.0 0.00 0.00 0.00 86 1017.5
20260904141533 78 0 0.0 0.0 0.00 0.00 0.00 88 1017.5
20260904140038 78 0 0.0 0.0 0.00 0.00 0.00 91 1017.6
20260904134543 76 0 0.0 0.9 0.00 0.00 0.00 94 1017.4
20260904133031 75 0 0.0 0.0 0.00 0.00 0.00 96 1017.5
20260904131533 74 0 0.0 0.0 0.00 0.00 0.00 97 1017.3
20260904130036 74 0 0.0 0.0 0.00 0.00 0.00 98 1017.4
20260904124532 73 0 0.0 0.0 0.00 0.00 0.00 98 1017.4
20260904123032 72 0 0.0 0.0 0.00 0.00 0.00 97 1017.4
20260904121534 71 0 0.0 0.0 0.00 0.00 0.00 97 1017.2
20260904120038 71 0 0.0 0.0 0.00 0.00 0.00 97 1017.1
20260904114537 71 0 0.0 0.0 0.00 0.00 0.00 96 1017.0
20260904113036 71 0 0.0 0.0 0.00 0.00 0.00 96 1016.9
20260904111533 71 0 0.0 0.0 0.00 0.00 0.00 96 1017.0
20260904110036 71 0 0.0 0.0 0.00 0.00 0.00 96 1016.8
20260904104534 71 0 0.0 0.9 0.00 0.00 0.00 95 1016.7
20260904103034 71 0 0.0 0.0 0.00 0.00 0.00 96 1016.6
20260904101533 71 0 0.0 0.0 0.00 0.00 0.00 96 1016.6
20260904100035 71 0 0.0 0.0 0.00 0.00 0.00 95 1016.5
20260904094541 72 0 0.0 0.0 0.00 0.00 0.00 95 1016.5
20260904093034 72 0 0.0 0.0 0.00 0.00 0.00 95 1016.5
20260904091534 72 0 0.0 0.0 0.00 0.00 0.00 95 1016.3
20260904090036 72 0 0.0 0.0 0.00 0.00 0.00 94 1016.3
20260904084532 72 0 0.0 0.0 0.00 0.00 0.00 94 1016.2
20260904083042 73 0 0.0 0.0 0.00 0.00 0.00 94 1016.3
20260904081534 73 0 0.0 0.0 0.00 0.00 0.00 94 1016.2
20260904080036 73 0 0.0 0.0 0.00 0.00 0.00 94 1016.2
20260904074535 73 0 0.0 0.0 0.00 0.00 0.00 94 1016.3
20260904073033 73 0 0.0 0.0 0.00 0.00 0.00 93 1016.0
20260904071533 74 0 0.0 0.0 0.00 0.00 0.00 93 1016.0
20260904070032 74 0 0.0 0.0 0.00 0.00 0.00 93 1016.0
20260904064532 74 0 0.0 0.0 0.00 0.00 0.00 93 1016.1
20260904063036 74 0 0.0 0.0 0.00 0.00 0.00 92 1016.2
20260904061532 74 0 0.0 0.0 0.00 0.00 0.00 92 1016.2
20260904060033 74 0 0.0 0.0 0.00 0.00 0.00 92 1016.4
20260904054532 75 0 0.0 0.0 0.00 0.00 0.00 92 1016.4
20260904053035 75 0 0.0 0.0 0.00 0.00 0.00 92 1016.3
20260904051534 75 0 0.0 0.0 0.00 0.00 0.00 91 1016.4